NOAA 16 DEB, 41263

Orbit data source: Space-Track

NOAA 16 DEB, 41263 is space debris in SSO originally from a launch on Thu, 21 Sep 2000 UTC launched from the Air Force Western Test Range (AFWTR). Debris objects in space refer to the collection of defunct objects orbiting the Earth. Examples of debris include non-operational satellites, rocket bodies, and fragments generated from explosions, collisions, or faulty payload assembly.

Loading next visibility...
Identifier
41263, 2000-055FP
Orbit
SSO
Country
Flag of USUS
Related business
Manufacturer
Unknown
Mission
Spacecraft
Bus & Motor
Unknown
Mass
Unknown
Launch date (UTC)
2000-09-21 (25 years ago)
Launch vehicle
Unknown
Launch site
Air Force Western Test Range (AFWTR)
Object type
Payload
Rocket body
Debris
Shape & HBR
Unknown shape, 0.1 m
Radar Cross Section
Small (<0.1 m²)

Expand to show TLE details & history
Last TLE update: 18 hours ago

TLE from 18 hours ago
0 NOAA 16 DEB
1 41263U 00055FP  25340.49679803  .00010158  00000-0  51494-2 0  9996
2 41263  98.8411 357.9743 0068097 249.3158 110.0705 14.14983278508362
Epoch: 2025-12-06T11:55Z
TLE epoch observation values (Epoch: 2025-12-06T11:55:23.349Z)
Latitude
-0.00012°
Longitude
103.60334°
Altitude
862.444 km
Speed
7.412 km/s
True Right ascension
23h 51m 53s
True Declination
0° 00' 00"
Sunlit
Object was in daylight at epoch
Visualization orbit readout
Latitude
Unknown
Longitude
Unknown
Altitude
Unknown
Speed
Unknown
Apparent Right ascension
Unknown
Apparent Declination
Unknown
Sunlit
N/A
Visualization observer readout
Local Sidereal Time
03:45:44
Azimuth
Unknown
Elevation
Unknown
Doppler factor
Unknown
Orbital elements
Apogee altitude
888.691 km
Perigee altitude
790.39 km
Semi-major axis
7,217.677 km
Eccentricity
0.00681
Inclination
98.8411°
RAAN
357.9743°
Arg. of periapsis
249.3158°
True anomaly
110.80129°
Mean anomaly
110.0705°
Eccentric anomaly
110.43611°
Mean motion
3.53954 °/min
Orbital period
101.71 mins
BSTAR
0.0051494
Loading maneuver chart data...
Computing Atmospheric mass density...
Loading historical data...
Loading historical data...
Loading historical data...
Loading historical data...
Loading historical data...
Loading historical data...
Loading historical data...

Documentation

Showing up to 5 results
|